Overview Statistics Trail Chart Weather Telemetry Raw packets
 

This is the latest recevied weather packets stored in our database for station/object KD4EG. If no packets are shown the sender has not sent any weather packets the latest 10 day(s).

<< 52 53 54 55 56 57 58 >>
Time Temp. Humidity Pressure Rain* Wind** Luminosity Snow
1788295221 35° C 49% 1020.5 hPa 0 mm - 440 W/m² -
1788294921 35° C 51% 1020.3 hPa 0 mm - 464 W/m² -
1788294631 35° C 51% 1020.3 hPa 0 mm - 484 W/m² -
1788294311 35° C 51% 1020.4 hPa 0 mm - 500 W/m² -
1788294007 34.44° C 51% 1020.3 hPa 0 mm - 513 W/m² -
1788293702 34.44° C 52% 1020.5 hPa 0 mm - 490 W/m² -
1788293396 35° C 52% 1020.3 hPa 0 mm - 507 W/m² -
1788293091 34.44° C 52% 1020.4 hPa 0 mm - 503 W/m² -
1788292790 34.44° C 50% 1020.4 hPa 0 mm - 461 W/m² -
1788292489 34.44° C 50% 1020.3 hPa 0 mm - 490 W/m² -
1788292183 33.89° C 52% 1020.6 hPa 0 mm - 527 W/m² -
1788291878 33.33° C 54% 1020.8 hPa 0 mm - 394 W/m² -
1788291575 33.89° C 54% 1020.6 hPa 0 mm - 165 W/m² -
1788291274 33.89° C 54% 1020.6 hPa 0 mm - 459 W/m² -
1788290973 33.89° C 53% 1020.9 hPa 0 mm - 174 W/m² -
1788290670 34.44° C 52% 1020.8 hPa 0 mm - 162 W/m² -
1788290365 33.89° C 53% 1020.9 hPa 0 mm - 607 W/m² -
1788290061 34.44° C 52% 1020.8 hPa 0 mm - 607 W/m² -
1788289757 34.44° C 50% 1021 hPa 0 mm - 654 W/m² -
1788289457 33.89° C 52% 1021 hPa 0 mm - 683 W/m² -
1788289155 33.33° C 53% 1021.1 hPa 0 mm - 344 W/m² -
1788288855 33.33° C 53% 1021.1 hPa 0 mm - 283 W/m² -
1788288549 34.44° C 52% 1021 hPa 0 mm - 283 W/m² -
1788288245 34.44° C 51% 1021.1 hPa 0 mm - 344 W/m² -
1788287945 34.44° C 51% 1021 hPa 0 mm - 695 W/m² -

* Rain latest hour (hover to see other rain measurements)
** Current wind speed in m/s (hover to see current wind gust speed)